[[{"header":{"parameterUnit":"m.s-1","parameterCategory":1,"la1":30.2991,"la2":30.254,"lo1":-89.0895,"lo2":-89.0444,"dy":0.0017,"dx":0.0017,"nx":28,"ny":28,"refTime":"2025-01-25T09:00:00:Z","depth":0,"parameterNumber":2,"parameterNumberName":"U-component_of_WINDS"},"data":[0,0,0,0,0,0,0,0,0,0,0,0,0,0,0,0,0,0,0,0,0,0,0,0,0,0,0,0,0,0,0,0,0,0,0,0,0,0,0,0,0,0,0,0,0,0,0,0,0,0,0,0,0,0,0,0,0,0,-3.6514,-3.6514,0,-3.6573,-3.6573,-3.6574,-3.6541,-3.6539,-3.6537,-3.6536,-3.6593,-3.6596,-3.6599,0,0,0,0,0,0,0,0,0,0,0,0,0,-3.6371,-3.6374,-3.6514,-3.6515,-3.6515,-3.6573,-3.6573,-3.6574,-3.6541,-3.6539,-3.6537,-3.6535,-3.6592,-3.6596,-3.66,0,0,0,0,0,0,0,0,0,0,0,0,0,-3.6432,-3.6374,-3.6514,-3.6506,-3.6505,-3.6572,-3.6573,-3.6574,-3.6541,-3.6539,-3.6536,-3.6534,-3.6591,-3.6596,-3.66,-3.6678,0,0,-3.6614,-3.6616,0,0,0,0,0,0,0,0,-3.6428,-3.6437,-3.6506,-3.6506,-3.6506,-3.6547,-3.6544,-3.6609,-3.6542,-3.6528,-3.6536,-3.6533,-3.658,-3.6585,-3.6601,-3.668,-3.6683,-3.6615,-3.6617,-3.6619,-3.6621,0,0,0,0,0,0,0,-3.6424,-3.6434,-3.6537,-3.6507,-3.6507,-3.6498,-3.6504,-3.6556,-3.6567,-3.6529,-3.6526,-3.6534,-3.6579,-3.6597,-3.6603,-3.6684,-3.6615,-3.6619,-3.6621,-3.6623,-3.6829,-3.6832,0,0,0,0,0,0,-3.6421,-3.6431,-3.6535,-3.6539,-3.646,-3.6503,-3.651,-3.6536,-3.6566,-3.6568,-3.6536,-3.6532,-3.6591,-3.6597,-3.6604,-3.6696,-3.6619,-3.6624,-3.6626,-3.6826,-3.683,-3.6833,0,0,0,0,0,0,-3.6418,-3.643,-3.6533,-3.6484,-3.6497,-3.6508,-3.6538,-3.6539,-3.6556,-3.6572,-3.6573,-3.6552,-3.6589,-3.6598,-3.666,-3.6698,-3.6626,-3.663,-3.6823,-3.6827,-3.6831,-3.6881,0,0,0,0,0,0,-3.6414,-3.6429,-3.6459,-3.6485,-3.6499,-3.6588,-3.6541,-3.6542,-3.6565,-3.656,-3.6587,-3.6589,-3.6588,-3.6653,-3.6665,-3.6703,-3.6634,-3.682,-3.6825,-3.683,-3.6876,-3.6887,-3.6896,0,0,0,0,0,-3.6409,-3.647,-3.6461,-3.6474,-3.6537,-3.659,-3.6598,-3.6595,-3.6568,-3.6598,-3.6608,-3.6589,-3.6693,-3.666,-3.6672,-3.6713,-3.6817,-3.6824,-3.683,-3.6872,-3.6885,-3.6895,0,0,0,0,0,0,-3.6447,-3.6474,-3.6463,-3.6535,-3.6561,-3.6584,-3.6621,-3.6609,-3.6642,-3.6636,-3.6631,-3.6638,-3.6702,-3.6714,-3.6677,-3.6789,-3.6751,-3.6759,-3.6779,-3.6791,-3.68,-3.6795,-3.6637,0,0,0,0,0,-3.6464,-3.6506,-3.6527,-3.6588,-3.6602,-3.661,-3.6633,-3.6629,-3.6655,-3.6665,-3.6679,-3.6704,-3.6743,-3.6768,-3.6804,-3.6879,-3.6884,-3.6913,-3.6923,-3.693,-3.6937,-3.6977,-3.699,-3.6853,-3.6853,-3.6853,0,0,-3.65,-3.6519,-3.6545,-3.6597,-3.6616,-3.6658,-3.6619,-3.6665,-3.6696,-3.6672,-3.6731,-3.6743,-3.677,-3.6839,-3.687,-3.6851,-3.6977,-3.6938,-3.6944,-3.6947,-3.6985,-3.6998,-3.7009,-3.6857,-3.6856,-3.6855,0,0,-3.6585,-3.6605,-3.6658,-3.6679,-3.6709,-3.6714,-3.6727,-3.6753,-3.676,-3.682,-3.6802,-3.6839,-3.6905,-3.6926,-3.6945,-3.704,-3.7023,-3.7052,-3.7101,-3.714,-3.7151,-3.7161,-3.7193,-3.7205,-3.706,-3.706,-3.706,0,-3.6624,-3.6688,-3.6687,-3.6735,-3.6757,-3.6739,-3.6792,-3.6812,-3.6852,-3.6868,-3.6847,-3.693,-3.6947,-3.702,-3.7044,-3.706,-3.7074,-3.7048,-3.715,-3.716,-3.7168,-3.7199,-3.7212,-3.7063,-3.7063,-3.7062,-3.7062,0,-3.6735,-3.678,-3.6819,-3.6859,-3.6887,-3.6937,-3.6943,-3.6971,-3.6965,-3.6973,-3.7034,-3.7055,-3.7094,-3.7112,-3.7107,-3.7184,-3.7171,-3.7151,-3.7111,-3.7185,-3.7214,-3.7226,-3.7068,-3.7066,-3.7065,-3.7065,0,0,-3.6843,-3.6884,-3.6898,-3.6916,-3.6949,-3.6983,-3.7033,-3.7073,-3.7097,-3.7126,-3.7167,-3.7225,-3.7206,-3.7227,-3.7224,-3.7259,-3.7332,-3.7233,-3.7234,-3.7249,-3.7418,-3.7431,-3.7445,-3.7322,-3.7325,-3.7326,-3.7415,0,-3.6929,-3.7017,-3.7018,-3.7098,-3.7139,-3.7123,-3.7167,-3.7191,-3.72,-3.7236,-3.7246,-3.7286,-3.7259,-3.7271,-3.7305,-3.7316,-3.7365,-3.731,-3.7359,-3.736,-3.735,-3.7461,-3.7475,-3.7558,-3.7426,-3.7428,-3.7429,0,-3.7041,-3.7075,-3.7159,-3.7187,-3.7204,-3.7243,-3.728,-3.7315,-3.7343,-3.7347,-3.7372,-3.7364,-3.7415,-3.7376,-3.7445,-3.7407,-3.7428,-3.7436,-3.7439,-3.7442,-3.7397,-3.7464,-3.7584,-3.7595,-3.7448,-3.7446,-3.7445,0,-3.7109,-3.7176,-3.7235,-3.7252,-3.7286,-3.7314,-3.7329,-3.7355,-3.7379,-3.7411,-3.7427,-3.7465,-3.7485,-3.7514,-3.7517,-3.7489,-3.7586,-3.7547,-3.7589,-3.7589,-3.7608,-3.7606,-3.773,-3.7625,-3.7625,-3.7625,-3.7625,0,-3.7204,-3.7256,-3.7267,-3.7303,-3.7361,-3.7362,-3.7419,-3.7432,-3.7455,-3.7493,-3.7482,-3.7518,-3.752,-3.7557,-3.7559,-3.7615,-3.7625,-3.7629,-3.7628,-3.7628,-3.7628,-3.764,-3.7633,-3.7628,-3.7627,-3.7627,-3.7626,0,-3.7289,-3.7299,-3.7362,-3.739,-3.7398,-3.7439,-3.7463,-3.7497,-3.7506,-3.7554,-3.7565,-3.7579,-3.7622,-3.7628,-3.7678,-3.7679,-3.7746,-3.7741,-3.7737,-3.7735,-3.7776,-3.7771,-3.791,-3.7928,-3.7813,-3.7814,-3.7815,0,-3.7347,-3.7387,-3.742,-3.7445,-3.7462,-3.7503,-3.7528,-3.7531,-3.7558,-3.7593,-3.7623,-3.7665,-3.7698,-3.7767,-3.7781,-3.7819,-3.7813,-3.786,-3.7819,-3.7817,-3.7812,-3.7808,-3.7812,-3.7866,-3.7868,-3.7869,-3.787,0,-3.745,-3.7453,-3.749,-3.7529,-3.756,-3.759,-3.7619,-3.7641,-3.7648,-3.7678,-3.7722,-3.7748,-3.78,-3.7841,-3.7879,-3.7894,-3.7883,-3.7883,-3.7894,-3.7893,-3.7888,-3.789,-3.7756,-3.7879,-3.7878,-3.7877,-3.7877,-3.7876,-3.7522,-3.7556,-3.7585,-3.7627,-3.7649,-3.7677,-3.7711,-3.7724,-3.7762,-3.7804,-3.7804,-3.7852,-3.788,-3.793,-3.7948,-3.7985,-3.797,-3.7987,-3.799,-3.7994,-3.7997,-3.7885,-3.7992,-3.7992,-3.7992,-3.7992,-3.7992,0,-3.7622,-3.764,-3.7679,-3.772,-3.7753,-3.7742,-3.7774,-3.7801,-3.7844,-3.7871,-3.7905,-3.7956,-3.7996,-3.8014,-3.8054,-3.808,-3.8076,-3.809,-3.8087,-3.809,-3.8009,-3.7995,-3.8093,-3.8093,-3.8093,-3.8093,-3.8093,-3.8093,-3.7677,-3.7735,-3.7742,-3.7811,-3.7828,-3.7876,-3.7895,-3.792,-3.7942,-3.7999,-3.8033,-3.8046,-3.8069,-3.811,-3.8147,-3.8151,-3.8165,-3.8181,-3.8183,-3.8106,-3.8096,-3.8086,-3.8072,-3.8185,-3.8185,-3.8261,-3.8261,-3.8262]},{"header":{"parameterUnit":"m.s-1","parameterCategory":1,"la1":30.2991,"la2":30.254,"lo1":-89.0895,"lo2":-89.0444,"dy":0.0017,"dx":0.0017,"nx":28,"ny":28,"refTime":"2025-01-25T09:00:00:Z","depth":0,"parameterNumber":3,"parameterNumberName":"V-component_of_WINDS"},"data":[0,0,0,0,0,0,0,0,0,0,0,0,0,0,0,0,0,0,0,0,0,0,0,0,0,0,0,0,0,0,0,0,0,0,0,0,0,0,0,0,0,0,0,0,0,0,0,0,0,0,0,0,0,0,0,0,0,0,1.4238,1.4239,0,1.4283,1.4284,1.4284,1.4308,1.4308,1.4308,1.4308,1.4352,1.4353,1.4354,0,0,0,0,0,0,0,0,0,0,0,0,0,1.4173,1.4174,1.4238,1.4239,1.4239,1.4283,1.4284,1.4284,1.4308,1.4308,1.4308,1.4308,1.4351,1.4353,1.4354,0,0,0,0,0,0,0,0,0,0,0,0,0,1.4208,1.4174,1.4238,1.4257,1.4259,1.4283,1.4284,1.4284,1.4308,1.4308,1.4308,1.4308,1.4351,1.4353,1.4354,1.4363,0,0,1.4359,1.436,0,0,0,0,0,0,0,0,1.4206,1.421,1.4253,1.4255,1.4258,1.429,1.4277,1.4311,1.4308,1.4289,1.4308,1.4308,1.4331,1.4334,1.4343,1.4365,1.4367,1.436,1.4361,1.4361,1.4362,0,0,0,0,0,0,0,1.4203,1.4208,1.4256,1.4254,1.4257,1.4263,1.4268,1.4283,1.4309,1.4291,1.4293,1.4298,1.4332,1.4341,1.4344,1.4368,1.4359,1.4361,1.4362,1.4363,1.4402,1.4402,0,0,0,0,0,0,1.4198,1.4206,1.4255,1.4257,1.4232,1.4264,1.4269,1.428,1.4309,1.4314,1.4298,1.4299,1.4338,1.4342,1.4345,1.4359,1.4361,1.4363,1.4364,1.4402,1.4402,1.4402,0,0,0,0,0,0,1.4197,1.4202,1.4253,1.4232,1.4239,1.4265,1.4276,1.428,1.4289,1.4314,1.4319,1.4302,1.4338,1.4343,1.4359,1.4361,1.4364,1.4365,1.4402,1.4402,1.4402,1.4386,0,0,0,0,0,0,1.4195,1.4202,1.4205,1.4232,1.424,1.4266,1.4276,1.4281,1.4292,1.4294,1.4319,1.4323,1.4339,1.4357,1.4361,1.4363,1.4366,1.4402,1.4402,1.4402,1.4386,1.4385,1.4384,0,0,0,0,0,1.4192,1.4198,1.4205,1.4211,1.4245,1.4266,1.427,1.4288,1.4292,1.4296,1.4313,1.4323,1.436,1.4358,1.4363,1.4366,1.4402,1.4402,1.4402,1.4387,1.4385,1.4384,0,0,0,0,0,0,1.4168,1.4201,1.421,1.4224,1.4242,1.427,1.4275,1.4286,1.4303,1.4304,1.4325,1.433,1.4345,1.4357,1.4354,1.4377,1.4382,1.4383,1.4369,1.4368,1.4367,1.4364,1.4368,0,0,0,0,0,1.4165,1.4179,1.4207,1.4217,1.4226,1.4249,1.4259,1.4271,1.429,1.4298,1.4315,1.4333,1.4349,1.4359,1.4375,1.4388,1.4395,1.4393,1.4392,1.4391,1.4392,1.4402,1.4402,1.4402,1.4402,1.4402,0,0,1.4158,1.4178,1.4185,1.4213,1.4228,1.4243,1.4255,1.4269,1.4281,1.43,1.4317,1.433,1.4352,1.4367,1.4374,1.4377,1.4393,1.4391,1.439,1.4392,1.4402,1.4402,1.4402,1.4402,1.4402,1.4402,0,0,1.4152,1.4168,1.4179,1.4195,1.4219,1.4235,1.4237,1.4264,1.4274,1.4292,1.4307,1.4321,1.4347,1.4362,1.4374,1.4377,1.4387,1.4381,1.4376,1.4386,1.4386,1.4386,1.4388,1.4389,1.4382,1.4382,1.4382,0,1.414,1.4163,1.4183,1.4198,1.421,1.423,1.4242,1.4256,1.4283,1.4291,1.4295,1.433,1.4346,1.4366,1.4367,1.4375,1.4379,1.4378,1.4384,1.4385,1.4385,1.4387,1.4388,1.4381,1.4381,1.4381,1.4381,0,1.4147,1.4163,1.4169,1.4197,1.4211,1.4223,1.4246,1.4257,1.4269,1.4285,1.4303,1.4323,1.4344,1.435,1.4361,1.4372,1.4374,1.438,1.4386,1.4384,1.4387,1.4388,1.438,1.438,1.438,1.4381,0,0,1.4126,1.4168,1.417,1.4183,1.4212,1.4225,1.4239,1.4262,1.4271,1.429,1.4303,1.4326,1.4334,1.4346,1.4359,1.4368,1.4371,1.4374,1.4375,1.4373,1.4386,1.4382,1.4383,1.4378,1.4378,1.4379,1.4385,0,1.4126,1.4154,1.4174,1.4194,1.421,1.423,1.4242,1.4262,1.4277,1.4293,1.4309,1.4326,1.4334,1.4342,1.4351,1.4369,1.4374,1.4368,1.4391,1.4392,1.4386,1.4384,1.4378,1.4384,1.4386,1.4386,1.4386,0,1.4128,1.4148,1.417,1.42,1.4207,1.4219,1.4242,1.4256,1.4279,1.429,1.4306,1.432,1.4337,1.4341,1.4365,1.436,1.4371,1.4381,1.4382,1.4385,1.4389,1.4388,1.4385,1.4386,1.4388,1.4388,1.4388,0,1.4113,1.4145,1.4163,1.4174,1.4208,1.4216,1.4231,1.4254,1.4267,1.4287,1.4296,1.4317,1.4328,1.4345,1.4365,1.4366,1.4387,1.4392,1.4397,1.4397,1.44,1.44,1.4401,1.4406,1.4406,1.4406,1.4406,0,1.411,1.4123,1.4157,1.4168,1.4184,1.4207,1.4222,1.4238,1.4259,1.4273,1.4291,1.4305,1.433,1.4347,1.4362,1.4381,1.4386,1.4395,1.4399,1.4394,1.4393,1.4401,1.4402,1.4406,1.4406,1.4406,1.4406,0,1.4095,1.4118,1.4139,1.4171,1.4179,1.419,1.4217,1.4229,1.4246,1.4265,1.427,1.4297,1.4318,1.434,1.4367,1.4378,1.4396,1.4401,1.4389,1.4391,1.4395,1.4395,1.4402,1.4405,1.4407,1.4407,1.4407,0,1.4092,1.4103,1.4137,1.4149,1.4163,1.4182,1.4196,1.4219,1.4233,1.4262,1.427,1.4293,1.4312,1.4345,1.4366,1.4388,1.4395,1.4396,1.4398,1.4393,1.4396,1.4395,1.4397,1.4395,1.4395,1.4394,1.4394,0,1.4085,1.4096,1.4116,1.4141,1.4157,1.4177,1.4198,1.4206,1.4234,1.4249,1.4271,1.4286,1.4316,1.4339,1.4364,1.4379,1.4392,1.4394,1.4396,1.4391,1.4384,1.4389,1.4388,1.4393,1.4393,1.4393,1.4394,1.4394,1.4076,1.4088,1.4114,1.4136,1.4155,1.4174,1.4188,1.4208,1.4227,1.4254,1.4267,1.429,1.4314,1.4349,1.4364,1.4383,1.4386,1.4389,1.439,1.4391,1.439,1.4381,1.4387,1.4387,1.4387,1.4387,1.4387,0,1.4071,1.409,1.411,1.4139,1.4157,1.4169,1.4193,1.4207,1.4227,1.4249,1.4269,1.4296,1.4318,1.4343,1.4367,1.4377,1.4384,1.4383,1.4383,1.4386,1.4385,1.4381,1.4377,1.4377,1.4377,1.4377,1.4377,1.4377,1.407,1.4091,1.4106,1.4137,1.4155,1.4179,1.4192,1.4211,1.4229,1.4258,1.4278,1.4294,1.4318,1.4344,1.4366,1.4373,1.4381,1.4378,1.4387,1.4385,1.4386,1.4387,1.4383,1.438,1.438,1.4387,1.4387,1.4387]}]]